Voltar ao catálogo

STARLINK-34340

AtivoComunicaçõesSSO
NORAD 64163·PAYLOAD·🇺🇸 United States

Lançado May 27, 2025 de Vandenberg Space Force Base

Loading…

Próximas Passagens (próximas 24 horas)

TLE

AtualizadoSource: CelesTrak SupGP

Época: Sep 15, 2026, 04:04 UTC

1 64163C 25112T   26258.16993056 -.00010898  00000+0 -33823-3 0  2580
2 64163  97.2824 305.3688 0000893  93.9561 306.0763 15.33450697    19

Acompanhe STARLINK-34340 em tempo real com AllMySat

Download on the App Store